"Pseudo-MPEC" for 3J91G21

Created 2023 Sep 19 16:22:02 UT using Find_Orb

Click here for an explanation of pseudo-MPECs

 
 Astrometry: 
     3J91G21*KC2023 09 10\JfQn1PX8_+:X=wd#Iq*EeX=:Ic,]FWIQ%[[]sABgSE^UBH2E?pjW94
     3J91G21 KC2023 09 10_(-yQK+5K8VAM7Y2!Af%uvNbuGXe,aM_8RE'W;t37G$p7KCWLIRQW94
     3J91G21 KC2023 09 10:xAstrometryxM=_hDDZvCb-_6@v7yl96=]mCredacted;`yF7nDW94
     3J91G21 KC2023 09 10iuaNc,MC\J_D/u_g=+SI=FWTFnHj8C,@`lG)(riL[kA+.LfO]P;pX10
     3J91G21 KC2023 09 10vcrA!oMBUsC_!;((QFMr,[xrQNUH$pTZku5:Wpu!/Qpk3G7`sCurX10
     3J91G21 KC2023 09 10;MKuXAm2U8.kS0#`W2kN#$OnIl9Aa@A2;STcec!MT.811xhCiGloX10
     3J91G21 0B2023 09 11eoa$6HE15:dCW),YW;goLyclickm:vhere61Q7#FLaZbcYMxNkA+M49
     3J91G21 0B2023 09 11tNQC`Fo9m/5]@ftwfvI'1ekj8i)e$XmB/6(0+A#n1a5Q[f26Ew!6M49
     3J91G21 0B2023 09 11AnZ:Qy/l`s(C)g,[OGJ']7yo'DF\5gPforI'\HEEn`P)G=!.RQU#M49
     3J91G21 KC2023 09 1128n1au/-WxubGDIHi=b.mE/dF==QstcehNM=8Zt6U\^2Z-4$%vfLX10
     3J91G21 KC2023 09 11Au7Am.s@(6+J?XAW9omHR+ZfmnjrDVDe,5-yCexplanationZ?%pX10
     3J91G21 KC2023 09 11J)5]JFP@:xLy3ll[]m=EyR,xPfqU7B9L%cM/]g-c@tV3V9+6,H[`X10

Station data:
(M49) IAS Remote Observatory, Hakos  (S23.236549 E16.361720)  Namibia.
   Observers D. Husar, M. Junius. Measurer D. Husar. 0.25-m f/4.6 reflector +
   CCD.
(W94) AMACS1, San Pedro de Atacama  (S22.953074 W68.179810)  Chile.  Observers
   A. Maury, G. Attard. Measurers A. Maury, G. Attard, D. Parrott. 0.28-m
   f/2.2 Schmidt + CCD.
(X10) OVTLN, San Pedro de Atacama  (S22.953331 W68.179600)  Chile.  Observers
   A. Maury, G. Attard, F. Signoret. Measurers A. Maury, G. Attard, D.
   Parrott. 0.50-m f/4  reflector + CCD.

Orbital elements:  3J91G21
   Perihelion 2023 Aug 20.94431 +/- 0.00698 TT = 22:39:48 (JD 2460177.44431)
Epoch 2023 Sep 11.0 TT = JDT 2460198.5   Earth MOID: 0.0024      AutoNEOCP
M  10.10432905 +/- 0.021            (J2000 ecliptic)
n   0.47988586 +/- 0.000867         Peri.  159.05333 +/- 0.009
a   1.61576208 +/- 0.00195          Node   164.84912 +/- 0.0034
e   0.3862430 +/- 0.000755          Incl.   16.42035 +/- 0.019
P   2.05/750.16d           H 26.12  G  0.15   U  8.0
q 0.99168528 +/- 3.61e-5    Q 2.23983888 +/- 0.00392
From 12 observations 2023 Sept. 10-11 (24.5 hr); mean residual 0".21
Residuals in arcseconds: 
230910 W94  .24+  .42-    230910 X10  .08-  .06+    230911 M49  .21+  .34-    
230910 W94  .10+  .08+    230910 X10  .31-  .22+    230911 X10  .06-  .27+    
230910 W94  .12+  .10+    230911 M49  .19-  .12+    230911 X10  .09+  .20-    
230910 X10  .28-  .08+    230911 M49  .27+  .01-    230911 X10  .31-  .17+    

Ephemerides (geocentric):
Date (UTC) HH   RA             Dec           delta  r     elong  mag " sig PA
---- --------  ------------   ------------  ------ ------ -----  --- --------
2023 09 19 16  03 19 19.831   -44 28 26.38  .07612 1.0407 116.4 22.8 16.1 136
2023 09 19 17  03 19 20.393   -44 28 38.34  .07639 1.0408 116.4 22.8 16.1 136
2023 09 19 18  03 19 20.941   -44 28 50.16  .07665 1.0410 116.4 22.8 16.1 136
2023 09 19 19  03 19 21.475   -44 29 01.83  .07692 1.0411 116.4 22.8 16.2 136
2023 09 19 20  03 19 21.994   -44 29 13.36  .07718 1.0412 116.4 22.8 16.2 136
2023 09 19 21  03 19 22.500   -44 29 24.75  .07745 1.0413 116.4 22.8 16.2 136
2023 09 19 22  03 19 22.992   -44 29 36.00  .07771 1.0415 116.4 22.8 16.3 136
2023 09 19 23  03 19 23.471   -44 29 47.11  .07798 1.0416 116.4 22.8 16.3 136
2023 09 20 00  03 19 23.935   -44 29 58.08  .07824 1.0417 116.4 22.8 16.4 136
2023 09 20 01  03 19 24.387   -44 30 08.91  .07851 1.0419 116.5 22.8 16.4 136
2023 09 20 02  03 19 24.825   -44 30 19.61  .07877 1.0420 116.5 22.8 16.4 136
2023 09 20 03  03 19 25.250   -44 30 30.18  .07904 1.0421 116.5 22.8 16.5 136
2023 09 20 04  03 19 25.662   -44 30 40.61  .07930 1.0423 116.5 22.8 16.5 136
2023 09 20 05  03 19 26.060   -44 30 50.91  .07957 1.0424 116.5 22.8 16.5 136
2023 09 20 06  03 19 26.446   -44 31 01.08  .07983 1.0425 116.5 22.9 16.6 136
2023 09 20 07  03 19 26.819   -44 31 11.12  .08010 1.0427 116.5 22.9 16.6 136
2023 09 20 08  03 19 27.179   -44 31 21.02  .08036 1.0428 116.5 22.9 16.6 136
2023 09 20 09  03 19 27.527   -44 31 30.80  .08063 1.0429 116.5 22.9 16.7 136
2023 09 20 10  03 19 27.862   -44 31 40.46  .08089 1.0431 116.5 22.9 16.7 136
2023 09 20 11  03 19 28.185   -44 31 49.98  .08116 1.0432 116.5 22.9 16.7 136
2023 09 20 12  03 19 28.495   -44 31 59.38  .08142 1.0433 116.6 22.9 16.8 136
2023 09 20 13  03 19 28.793   -44 32 08.66  .08169 1.0435 116.6 22.9 16.8 136
2023 09 20 14  03 19 29.079   -44 32 17.81  .08195 1.0436 116.6 22.9 16.8 136
2023 09 20 15  03 19 29.353   -44 32 26.84  .08222 1.0437 116.6 22.9 16.9 136
2023 09 20 16  03 19 29.615   -44 32 35.75  .08248 1.0439 116.6 22.9 16.9 136
2023 09 20 17  03 19 29.865   -44 32 44.54  .08275 1.0440 116.6 22.9 16.9 136
2023 09 20 18  03 19 30.103   -44 32 53.20  .08301 1.0442 116.6 22.9 17.0 136
2023 09 20 19  03 19 30.330   -44 33 01.75  .08328 1.0443 116.6 22.9 17.0 136
2023 09 20 20  03 19 30.545   -44 33 10.18  .08354 1.0444 116.6 22.9 17.0 136
2023 09 20 21  03 19 30.748   -44 33 18.49  .08381 1.0446 116.6 23.0 17.1 136
2023 09 20 22  03 19 30.940   -44 33 26.69  .08407 1.0447 116.6 23.0 17.1 136
2023 09 20 23  03 19 31.120   -44 33 34.77  .08434 1.0448 116.7 23.0 17.1 136
2023 09 21 00  03 19 31.290   -44 33 42.74  .08460 1.0450 116.7 23.0 17.2 136
2023 09 21 01  03 19 31.448   -44 33 50.59  .08487 1.0451 116.7 23.0 17.2 136
2023 09 21 02  03 19 31.595   -44 33 58.32  .08513 1.0452 116.7 23.0 17.2 136
2023 09 21 03  03 19 31.730   -44 34 05.95  .08540 1.0454 116.7 23.0 17.3 136
2023 09 21 04  03 19 31.855   -44 34 13.46  .08566 1.0455 116.7 23.0 17.3 136
2023 09 21 05  03 19 31.969   -44 34 20.86  .08593 1.0456 116.7 23.0 17.3 136
2023 09 21 06  03 19 32.072   -44 34 28.15  .08619 1.0458 116.7 23.0 17.4 136
2023 09 21 07  03 19 32.165   -44 34 35.34  .08646 1.0459 116.7 23.0 17.4 136
2023 09 21 08  03 19 32.247   -44 34 42.41  .08672 1.0461 116.7 23.0 17.4 136
2023 09 21 09  03 19 32.318   -44 34 49.37  .08699 1.0462 116.8 23.0 17.4 136
2023 09 21 10  03 19 32.378   -44 34 56.23  .08725 1.0463 116.8 23.0 17.5 136
2023 09 21 11  03 19 32.428   -44 35 02.98  .08752 1.0465 116.8 23.0 17.5 136
2023 09 21 12  03 19 32.468   -44 35 09.63  .08778 1.0466 116.8 23.1 17.5 136
2023 09 21 13  03 19 32.498   -44 35 16.17  .08805 1.0467 116.8 23.1 17.6 136
2023 09 21 14  03 19 32.517   -44 35 22.60  .08831 1.0469 116.8 23.1 17.6 136
2023 09 21 15  03 19 32.526   -44 35 28.93  .08858 1.0470 116.8 23.1 17.6 136